Weather in Lomovatka

Russia / Vologda Oblast     61°07′43″N   45°31′29″E
temp.,
°C
wind,
m/s
gust,
m/s
humid.,
%
clouds,
%
prec.,
mm/h
press.,
hPa
HPBL,
m
12 may, wed
wed1200:00+10ssw278893 0.0 1029126
03:00+9ssw38925 0.0 1029138
06:00+12sw36775 0.0 1030196
09:00+18sw355592 0.0 1029607
12:00+21sw344311 0.0 10281077
15:00+23sw34395 0.0 10271242
18:00+21ssw24495 0.0 1027196
21:00+14s2263100 0.0 102713
13 may, thu
thu1300:00+12s226654 0.0 102716
03:00+11s22740 0.0 102723
06:00+15s24690 0.0 1027128
09:00+21s24532 0.0 1026599
12:00+23s464654 0.0 10251774
15:00+23s354766 0.0 10231313
18:00+20se235852 0.0 102262
21:00+16sse287224 0.0 1021140
14 may, fri
fri1400:00+14sse29785 0.1 1020147
03:00+14sse2885100 0.1 1019172
06:00+17s3107278 0.0 1018407
09:00+18ssw5972100 0.3 10171093
12:00+20sw575992 0.1 10171518
15:00+21sw594627 0.2 10172224
18:00+19sw41054100 0.0 10161704
21:00+15ssw2977100 0.0 1016227
15 may, sat
sat1500:00+13sw26905 0.0 1016103
03:00+11sw239212 0.0 101748
06:00+14sw2574100 0.0 1016201
09:00+17ssw2468100 0.0 1015401
12:00+17s257679 0.0 1015462
15:00+22ssw2451100 0.0 10141754
18:00+22e1256100 0.0 1012159
21:00+15nnw2598100 10.1 1011177
16 may, sun
sun1600:00+15se2594100 13.6 100996
03:00+15s413934 14.4 1008653
06:00+15ssw5129033 0.0 1008671
09:00+18ssw597425 0.0 1007863
12:00+21ssw610614 0.4 10061648
15:00+20sw61169100 3.4 10071422
18:00+17sw51177100 2.1 1007691
21:00+15sw41288100 5.4 1007481